Las Cruces, NM

7:06 PM MDT on May 23, 2017 (GMT -0600)
Las Cruces International

Weather History for KLRU - October, 2013

Change the Weather History Date:

Monday, October 14, 2013

  Actual Average Record
Temperature  
Mean Temperature 68 °F -  
Max Temperature 77 °F 74 °F 87 °F (1998)
Min Temperature 60 °F 51 °F 40 °F (2014)
Cooling Degree Days 4    
Growing Degree Days 18 (Base 50)    
Moisture  
Dew Point 47 °F    
Average Humidity 48    
Maximum Humidity 64    
Minimum Humidity 32    
Precipitation  
Precipitation 0.00 in - - ()
Sea Level Pressure  
Sea Level Pressure 30.08 in    
Wind  
Wind Speed 11 mph (WSW)    
Max Wind Speed 24 mph    
Max Gust Speed 30 mph    
Visibility 10 miles    
Events      
Averages and records for this station are not official NWS values.
T = Trace of Precipitation, MM = Missing Value Source: NWS Daily Summary

Daily Weather History Graph

Daily Weather History Graph

Search for Another Location

Airport or City:

Trip Planner

Search our weather history database for the weather conditions in past years. The results will help you decide how hot, cold, wet, or windy it might be!

Date:

Astronomy

Oct. 14, 2013 Rise Set
Actual Time 7:10 AM MDT 6:35 PM MDT
Civil Twilight 6:46 AM MDT 7:00 PM MDT
Nautical Twilight 6:17 AM MDT 7:28 PM MDT
Astronomical Twilight 5:49 AM MDT 7:57 PM MDT
Moon 3:54 PM MDT (10/14) 2:45 AM MDT (10/14)
Length of Visible Light 12h 14m
Length of Day
11h 24m
Waxing Gibbous, 80% of the Moon is Illuminated
Oct 14
Waxing Gibbous
Oct 18
Full
Oct 26
Last Quarter
Nov 3
New
Nov 9
First Quarter

Hourly Weather History & Observations

Time (MDT) Temp. Dew Point Humidity Pressure Visibility Wind Dir Wind Speed Gust Speed Precip Events Conditions
12:15 AM 69.1 °F 47.3 °F 46% 30.08 in 10.0 mi SW 10.4 mph - N/A   Clear
12:35 AM 68.9 °F 47.3 °F 46% 30.09 in 10.0 mi SW 11.5 mph 16.1 mph N/A   Clear
12:55 AM 68.9 °F 47.3 °F 46% 30.09 in 10.0 mi SW 11.5 mph 16.1 mph N/A   Clear
1:15 AM 68.9 °F 47.5 °F 46% 30.08 in 10.0 mi SW 20.7 mph - N/A   Clear
1:35 AM 68.4 °F 47.5 °F 47% 30.09 in 10.0 mi SW 16.1 mph - N/A   Clear
1:55 AM 68.0 °F 47.7 °F 48% 30.09 in 10.0 mi SW 15.0 mph - N/A   Clear
2:15 AM 67.6 °F 47.7 °F 49% 30.09 in 10.0 mi SW 15.0 mph 19.6 mph N/A   Clear
2:35 AM 67.3 °F 47.8 °F 50% 30.09 in 10.0 mi SW 15.0 mph 19.6 mph N/A   Clear
2:55 AM 67.3 °F 48.2 °F 50% 30.09 in 10.0 mi WSW 15.0 mph 19.6 mph N/A   Clear
3:15 AM 67.1 °F 48.2 °F 51% 30.08 in 10.0 mi WSW 16.1 mph - N/A   Clear
3:35 AM 66.9 °F 48.6 °F 52% 30.08 in 10.0 mi WSW 15.0 mph - N/A   Clear
3:55 AM 66.6 °F 48.7 °F 53% 30.08 in 10.0 mi WSW 15.0 mph - N/A   Clear
4:15 AM 66.2 °F 48.7 °F 53% 30.08 in 10.0 mi WSW 13.8 mph 18.4 mph N/A   Clear
4:35 AM 66.2 °F 48.7 °F 53% 30.07 in 10.0 mi WSW 13.8 mph - N/A   Clear
4:55 AM 66.2 °F 48.6 °F 53% 30.08 in 10.0 mi WSW 15.0 mph - N/A   Clear
5:15 AM 65.3 °F 48.6 °F 55% 30.07 in 10.0 mi WSW 12.7 mph - N/A   Clear
5:35 AM 65.3 °F 48.6 °F 55% 30.07 in 10.0 mi WSW 12.7 mph - N/A   Clear
5:55 AM 63.5 °F 48.4 °F 58% 30.07 in 10.0 mi West 8.1 mph - N/A   Clear
6:15 AM 62.1 °F 48.4 °F 61% 30.08 in 10.0 mi West 8.1 mph - N/A   Clear
6:35 AM 62.6 °F 48.4 °F 60% 30.08 in 10.0 mi West 11.5 mph - N/A   Clear
6:55 AM 62.2 °F 48.4 °F 60% 30.09 in 10.0 mi West 11.5 mph - N/A   Clear
7:15 AM 61.3 °F 48.2 °F 62% 30.10 in 10.0 mi West 9.2 mph - N/A   Clear
7:35 AM 60.8 °F 48.2 °F 63% 30.11 in 10.0 mi West 5.8 mph - N/A   Clear
7:55 AM 60.3 °F 48.2 °F 64% 30.11 in 10.0 mi WSW 5.8 mph - N/A   Clear
8:15 AM 62.4 °F 48.6 °F 60% 30.11 in 10.0 mi West 3.5 mph - N/A   Clear
8:35 AM 62.6 °F 48.9 °F 61% 30.12 in 10.0 mi Calm Calm - N/A   Clear
8:55 AM 64.4 °F 48.6 °F 56% 30.13 in 10.0 mi Calm Calm - N/A   Clear
9:15 AM 65.3 °F 48.9 °F 55% 30.13 in 10.0 mi Calm Calm - N/A   Clear
9:35 AM 65.8 °F 50.0 °F 57% 30.14 in 10.0 mi WSW 3.5 mph - N/A   Clear
9:55 AM 67.3 °F 49.3 °F 52% 30.14 in 10.0 mi West 6.9 mph - N/A   Clear
10:15 AM 67.8 °F 48.7 °F 50% 30.13 in 10.0 mi West 8.1 mph - N/A   Clear
10:35 AM 68.2 °F 48.4 °F 49% 30.14 in 10.0 mi WSW 8.1 mph - N/A   Clear
10:55 AM 69.1 °F 48.2 °F 47% 30.13 in 10.0 mi West 10.4 mph - N/A   Clear
11:15 AM 69.6 °F 48.4 °F 47% 30.12 in 10.0 mi WSW 9.2 mph - N/A   Clear
11:35 AM 70.9 °F 48.2 °F 44% 30.13 in 10.0 mi West 11.5 mph - N/A   Clear
11:55 AM 70.7 °F 48.2 °F 45% 30.12 in 10.0 mi WSW 8.1 mph 18.4 mph N/A   Scattered Clouds
12:15 PM 72.5 °F 47.8 °F 42% 30.11 in 10.0 mi WSW 10.4 mph 18.4 mph N/A   Scattered Clouds
12:35 PM 71.2 °F 47.7 °F 43% 30.11 in 10.0 mi West 11.5 mph 17.3 mph N/A   Scattered Clouds
12:55 PM 72.5 °F 47.5 °F 41% 30.10 in 10.0 mi West 9.2 mph 17.3 mph N/A   Clear
1:15 PM 72.1 °F 47.7 °F 42% 30.09 in 10.0 mi West 11.5 mph 20.7 mph N/A   Scattered Clouds
1:35 PM 72.1 °F 47.8 °F 42% 30.08 in 10.0 mi WSW 16.1 mph 20.7 mph N/A   Scattered Clouds
1:55 PM 73.4 °F 47.3 °F 39% 30.07 in 10.0 mi West 16.1 mph 24.2 mph N/A   Clear
2:15 PM 73.8 °F 46.6 °F 38% 30.05 in 10.0 mi West 19.6 mph 23.0 mph N/A   Clear
2:35 PM 74.3 °F 45.1 °F 35% 30.04 in 10.0 mi WSW 20.7 mph 28.8 mph N/A   Scattered Clouds
2:55 PM 77.0 °F 45.3 °F 32% 30.04 in 10.0 mi WSW 20.7 mph 24.2 mph N/A   Scattered Clouds
3:15 PM 76.1 °F 44.4 °F 32% 30.04 in 10.0 mi West 24.2 mph 29.9 mph N/A   Clear
3:35 PM 75.2 °F 44.6 °F 34% 30.04 in 10.0 mi West 15.0 mph 24.2 mph N/A   Clear
3:55 PM 74.7 °F 44.2 °F 34% 30.04 in 10.0 mi West 18.4 mph 28.8 mph N/A   Clear
4:15 PM 74.3 °F 44.2 °F 34% 30.03 in 10.0 mi West 17.3 mph 29.9 mph N/A   Clear
4:35 PM 73.4 °F 43.9 °F 35% 30.04 in 10.0 mi West 20.7 mph 28.8 mph N/A   Clear
4:55 PM 72.7 °F 43.7 °F 35% 30.04 in 10.0 mi West 15.0 mph 26.5 mph N/A   Clear
5:15 PM 72.5 °F 44.4 °F 36% 30.04 in 10.0 mi West 13.8 mph 19.6 mph N/A   Clear
5:35 PM 71.8 °F 43.9 °F 37% 30.04 in 10.0 mi West 16.1 mph 23.0 mph N/A   Clear
5:55 PM 71.4 °F 44.2 °F 38% 30.04 in 10.0 mi West 11.5 mph 19.6 mph N/A   Clear
6:15 PM 71.1 °F 44.4 °F 38% 30.04 in 10.0 mi West 12.7 mph - N/A   Clear
6:35 PM 70.7 °F 44.6 °F 39% 30.04 in 10.0 mi West 10.4 mph - N/A   Clear
6:55 PM 69.8 °F 44.2 °F 40% 30.04 in 10.0 mi West 8.1 mph - N/A   Clear
7:15 PM 68.9 °F 44.6 °F 42% 30.05 in 10.0 mi West 5.8 mph - N/A   Clear
7:35 PM 68.0 °F 44.6 °F 43% 30.05 in 10.0 mi West 6.9 mph - N/A   Clear
7:55 PM 66.9 °F 44.8 °F 45% 30.06 in 10.0 mi WSW 6.9 mph - N/A   Clear
8:15 PM 66.4 °F 45.1 °F 46% 30.06 in 10.0 mi SW 5.8 mph - N/A   Clear
8:35 PM 65.8 °F 45.0 °F 47% 30.06 in 10.0 mi West 5.8 mph - N/A   Clear
8:55 PM 64.4 °F 44.8 °F 49% 30.06 in 10.0 mi West 4.6 mph - N/A   Clear
9:15 PM 63.5 °F 44.8 °F 51% 30.06 in 10.0 mi West 3.5 mph - N/A   Clear
9:35 PM 62.6 °F 44.6 °F 52% 30.07 in 10.0 mi WSW 3.5 mph - N/A   Clear
9:55 PM 61.9 °F 44.6 °F 53% 30.07 in 10.0 mi Calm Calm - N/A   Clear
10:15 PM 61.7 °F 44.6 °F 53% 30.07 in 10.0 mi Calm Calm - N/A   Mostly Cloudy
10:35 PM 61.7 °F 44.2 °F 53% 30.07 in 10.0 mi NNW 5.8 mph - N/A   Overcast
10:55 PM 62.6 °F 44.6 °F 52% 30.07 in 10.0 mi NNW 4.6 mph - N/A   Overcast
11:15 PM 64.6 °F 44.8 °F 49% 30.07 in 10.0 mi SW 5.8 mph - N/A   Overcast
11:35 PM 63.0 °F 44.8 °F 51% 30.06 in 10.0 mi SW 3.5 mph - N/A   Mostly Cloudy
11:55 PM 64.4 °F 46.0 °F 51% 30.06 in 10.0 mi SW 5.8 mph - N/A   Scattered Clouds